Date String (YYYY-MM-DD hh:mm:ss) UTC,Instrument flags,absolute air pressure of the measurement (hPa),sample flow rate (lpm),inlet stack bypass flow (lpm),air temperature of the measurement (°C),ambient temperature measured by the external sensor (°C),aerosol sample conditioner tube jacket temperature (°C),OPC LED temperature (°C),internal box temperature (°C),relative humidity of the measurement (%),span deviation,mass concentration of particles derived from Lorenz-Mie calculation of OPC scattering (μg/m³),mass concentration of particles derived from Lorenz-Mie calculation of OPC scattering (μg/m³),mass concentration of particles derived from Lorenz-Mie calculation of OPC scattering (μg/m³)
DateTimeUTC,F1_M11,P_M11,Q1_M11,Q2_M11,T1_M11,T2_M11,T3_M11,T4_M11,T5_M11,U1_M11,ZSPAN_M11,X2_M11,X0_M11,X1_M11
2024-01-04 23:00:00,SystemResetWarning,0823.8,5.00,000.00,018.9,018.3,000.0,027.2,020.1,16.8,0001.4,0010.77,0015.48,0009.98
2024-01-04 23:01:00,SystemResetWarning,0823.8,5.00,000.00,018.9,018.3,000.0,027.2,020.1,16.9,0001.2,0010.77,0015.44,0010.00
2024-01-04 23:02:00,SystemResetWarning,0823.8,5.00,000.00,018.9,018.3,000.0,027.2,020.1,16.8,0001.4,0010.86,0015.66,0010.03
2024-01-04 23:03:00,SystemResetWarning,0823.8,5.00,000.00,018.9,018.4,000.0,027.2,020.1,16.8,0001.6,0010.90,0015.75,0010.06
2024-01-04 23:04:00,SystemResetWarning,0823.8,5.00,000.00,018.9,018.4,000.0,027.2,020.1,16.8,0001.9,0010.89,0015.88,0010.05
2024-01-04 23:05:00,SystemResetWarning,0823.8,5.00,000.00,018.9,018.4,000.0,027.2,020.1,16.8,0001.9,0010.90,0016.91,0010.06
2024-01-04 23:06:00,SystemResetWarning,0823.8,5.00,000.00,018.9,018.3,000.0,027.2,020.0,16.8,0001.7,0010.95,0017.10,0010.08
2024-01-04 23:07:00,SystemResetWarning,0823.8,5.01,000.00,018.9,018.3,000.0,027.2,020.0,16.8,0001.8,0010.91,0016.87,0010.09
2024-01-04 23:08:00,SystemResetWarning,0823.8,5.00,000.00,018.9,018.3,000.0,027.2,020.0,16.8,0001.7,0010.89,0016.81,0010.08
2024-01-04 23:09:00,SystemResetWarning,0823.8,4.99,000.00,018.9,018.3,000.0,027.2,020.0,16.8,0001.9,0010.89,0016.77,0010.06
2024-01-04 23:10:00,SystemResetWarning,0823.8,5.00,000.00,018.9,018.3,000.0,027.2,020.0,16.8,0001.9,0010.85,0016.19,0010.07
2024-01-04 23:11:00,SystemResetWarning,0823.8,5.00,000.00,018.9,018.3,000.0,027.2,020.1,16.8,0001.9,0010.87,0016.18,0010.08
2024-01-04 23:12:00,SystemResetWarning,0823.8,5.00,000.00,018.9,018.3,000.0,027.2,020.1,16.8,0001.9,0010.86,0016.14,0010.09
2024-01-04 23:13:00,SystemResetWarning,0823.9,5.00,000.00,018.9,018.3,000.0,027.2,020.1,16.8,0002.0,0010.84,0016.93,0010.09
2024-01-04 23:14:00,SystemResetWarning,0823.9,5.01,000.00,018.9,018.3,000.0,027.2,020.1,16.8,0001.9,0010.81,0017.01,0010.09
2024-01-04 23:15:00,SystemResetWarning,0823.9,5.00,000.00,018.9,018.3,000.0,027.2,020.1,16.8,0001.8,0010.86,0017.01,0010.09
2024-01-04 23:16:00,SystemResetWarning,0823.9,5.00,000.00,018.9,018.3,000.0,027.2,020.1,16.8,0001.7,0010.90,0016.18,0010.09
2024-01-04 23:17:00,SystemResetWarning,0823.9,5.01,000.00,018.9,018.3,000.0,027.2,020.1,16.8,0002.0,0010.92,0016.03,0010.11
2024-01-04 23:18:00,SystemResetWarning,0823.9,5.00,000.00,018.9,018.3,000.0,027.2,020.1,16.8,0002.0,0010.97,0016.45,0010.10
2024-01-04 23:19:00,SystemResetWarning,0823.9,4.99,000.00,018.9,018.3,000.0,027.2,020.2,16.8,0002.1,0011.00,0016.76,0010.11
2024-01-04 23:20:00,SystemResetWarning,0823.9,5.00,000.00,018.9,018.4,000.0,027.2,020.2,16.7,0002.2,0010.97,0016.61,0010.14
2024-01-04 23:21:00,SystemResetWarning,0824.0,4.99,000.00,019.0,018.4,000.0,027.2,020.2,16.7,0002.1,0010.99,0016.62,0010.16
2024-01-04 23:22:00,SystemResetWarning,0824.0,5.00,000.00,019.0,018.4,000.0,027.2,020.2,16.7,0002.0,0010.97,0016.65,0010.16
2024-01-04 23:23:00,SystemResetWarning,0823.9,5.00,000.00,019.0,018.4,000.0,027.3,020.2,16.7,0002.0,0010.97,0016.72,0010.16
2024-01-04 23:24:00,SystemResetWarning,0824.0,5.01,000.00,019.0,018.5,000.0,027.3,020.2,16.7,0001.8,0010.97,0016.53,0010.18
2024-01-04 23:25:00,SystemResetWarning,0824.0,5.00,000.00,019.0,018.5,000.0,027.3,020.2,16.7,0001.6,0010.99,0016.14,0010.19
2024-01-04 23:26:00,SystemResetWarning,0824.0,5.00,000.00,019.0,018.5,000.0,027.3,020.2,16.7,0001.6,0011.02,0016.22,0010.22
2024-01-04 23:27:00,SystemResetWarning,0824.0,5.00,000.00,019.0,018.5,000.0,027.3,020.2,16.7,0001.7,0011.03,0016.71,0010.25
2024-01-04 23:28:00,SystemResetWarning,0824.0,5.00,000.00,019.0,018.5,000.0,027.3,020.3,16.7,0001.8,0011.04,0017.11,0010.27
2024-01-04 23:29:00,SystemResetWarning,0824.0,5.00,000.00,019.0,018.5,000.0,027.3,020.3,16.7,0001.7,0011.07,0017.29,0010.30
2024-01-04 23:30:00,SystemResetWarning,0824.0,5.00,000.00,019.0,018.5,000.0,027.3,020.3,16.7,0001.8,0011.13,0016.97,0010.35
2024-01-04 23:31:00,SystemResetWarning,0824.0,5.00,000.00,019.0,018.5,000.0,027.3,020.3,16.7,0001.6,0011.19,0017.51,0010.37
2024-01-04 23:32:00,SystemResetWarning,0824.0,5.01,000.00,019.1,018.5,000.0,027.3,020.3,16.7,0001.5,0011.22,0017.62,0010.40
2024-01-04 23:33:00,SystemResetWarning,0824.0,5.00,000.00,019.1,018.6,000.0,027.3,020.3,16.7,0001.6,0011.23,0017.68,0010.39
2024-01-04 23:34:00,SystemResetWarning,0824.0,5.00,000.00,019.1,018.6,000.0,027.3,020.3,16.7,0001.8,0011.28,0017.74,0010.40
2024-01-04 23:35:00,SystemResetWarning,0824.1,5.00,000.00,019.1,018.6,000.0,027.3,020.3,16.7,0001.8,0011.30,0017.57,0010.42
2024-01-04 23:36:00,SystemResetWarning,0824.1,5.00,000.00,019.1,018.6,000.0,027.3,020.4,16.7,0001.8,0011.35,0017.33,0010.45
2024-01-04 23:37:00,SystemResetWarning,0824.2,5.00,000.00,019.1,018.6,000.0,027.4,020.4,16.7,0002.1,0011.33,0017.22,0010.47
2024-01-04 23:38:00,SystemResetWarning,0824.2,5.00,000.00,019.1,018.6,000.0,027.4,020.4,16.6,0002.3,0011.35,0017.10,0010.47
2024-01-04 23:39:00,SystemResetWarning,0824.1,5.00,000.00,019.1,018.6,000.0,027.4,020.4,16.6,0002.3,0011.40,0017.64,0010.49
2024-01-04 23:40:00,SystemResetWarning,0824.1,5.00,000.00,019.1,018.6,000.0,027.4,020.4,16.6,0002.5,0011.40,0017.58,0010.50
2024-01-04 23:41:00,SystemResetWarning,0824.2,5.00,000.00,019.1,018.6,000.0,027.4,020.4,16.5,0002.5,0011.39,0017.84,0010.52
2024-01-04 23:42:00,SystemResetWarning,0824.2,5.00,000.00,019.1,018.6,000.0,027.4,020.4,16.5,0002.5,0011.37,0018.30,0010.54
2024-01-04 23:43:00,SystemResetWarning,0824.2,5.01,000.00,019.1,018.6,000.0,027.4,020.4,16.5,0002.6,0011.40,0018.45,0010.56
2024-01-04 23:44:00,SystemResetWarning,0824.1,5.00,000.00,019.2,018.6,000.0,027.4,020.5,16.5,0002.7,0011.46,0018.79,0010.60
2024-01-04 23:45:00,SystemResetWarning,0824.1,5.01,000.00,019.2,018.7,000.0,027.4,020.4,16.4,0002.8,0011.47,0019.08,0010.61
2024-01-04 23:46:00,SystemResetWarning,0824.1,5.01,000.00,019.2,018.7,000.0,027.4,020.5,16.4,0002.9,0011.41,0018.91,0010.59
2024-01-04 23:47:00,SystemResetWarning,0824.1,5.00,000.00,019.2,018.7,000.0,027.4,020.5,16.4,0003.0,0011.43,0019.20,0010.61
2024-01-04 23:48:00,SystemResetWarning,0824.1,4.98,000.00,019.2,018.7,000.0,027.4,020.5,16.4,0002.8,0011.49,0019.61,0010.62
2024-01-04 23:49:00,SystemResetWarning,0824.1,4.99,000.00,019.2,018.7,000.0,027.4,020.5,16.4,0002.6,0011.50,0020.13,0010.65
2024-01-04 23:50:00,SystemResetWarning,0824.1,5.01,000.00,019.2,018.7,000.0,027.5,020.5,16.3,0002.6,0011.50,0020.15,0010.67
2024-01-04 23:51:00,SystemResetWarning,0824.2,5.01,000.00,019.2,018.7,000.0,027.5,020.5,16.3,0002.4,0011.49,0021.10,0010.68
2024-01-04 23:52:00,SystemResetWarning,0824.1,5.00,000.00,019.2,018.7,000.0,027.5,020.5,16.3,0002.2,0011.47,0020.85,0010.68
2024-01-04 23:53:00,SystemResetWarning,0824.2,5.01,000.00,019.2,018.7,000.0,027.5,020.5,16.2,0002.2,0011.46,0019.98,0010.69
2024-01-04 23:54:00,SystemResetWarning,0824.1,4.99,000.00,019.2,018.7,000.0,027.5,020.5,16.2,0002.3,0011.48,0019.76,0010.69
2024-01-04 23:55:00,SystemResetWarning,0824.2,4.99,000.00,019.2,018.7,000.0,027.5,020.5,16.1,0002.2,0011.46,0019.84,0010.72
2024-01-04 23:56:00,SystemResetWarning,0824.3,5.00,000.00,019.2,018.7,000.0,027.5,020.5,16.1,0002.2,0011.46,0019.98,0010.76
2024-01-04 23:57:00,SystemResetWarning,0824.3,4.99,000.00,019.2,018.7,000.0,027.5,020.4,16.1,0002.2,0011.56,0020.18,0010.80
2024-01-04 23:58:00,SystemResetWarning,0824.3,5.00,000.00,019.2,018.6,000.0,027.5,020.4,16.1,0002.2,0011.56,0019.96,0010.80
2024-01-04 23:59:00,SystemResetWarning,0824.3,5.00,000.00,019.2,018.6,000.0,027.5,020.3,16.1,0002.1,0011.53,0019.76,0010.80
